This is the latest recevied weather packets stored in our database for station/object N5DGC. If no packets are shown the sender has not sent any weather packets the latest 10 day(s).
| Time | Temp. | Humidity | Pressure | Rain* | Wind** | Luminosity | Snow |
|---|---|---|---|---|---|---|---|
| 1777475155 | 15.56° C | 18% | 1238.6 hPa | 0 mm | - | 321 W/m² | - |
| 1777474852 | 15.56° C | 18% | 1238.4 hPa | 0 mm | - | 256 W/m² | - |
| 1777474548 | 15° C | 17% | 1238.6 hPa | 0 mm | - | 237 W/m² | - |
| 1777474245 | 14.44° C | 16% | 1238.3 hPa | 0 mm | - | 260 W/m² | - |
| 1777473942 | 14.44° C | 17% | 1238.1 hPa | 0 mm | - | 192 W/m² | - |
| 1777473640 | 14.44° C | 16% | 1238.3 hPa | 0 mm | - | 157 W/m² | - |
| 1777473336 | 13.89° C | 17% | 1238.3 hPa | 0 mm | - | 152 W/m² | - |
| 1777473032 | 13.89° C | 17% | 1238.4 hPa | 0 mm | - | 155 W/m² | - |
| 1777472728 | 13.33° C | 17% | 1238.2 hPa | 0 mm | - | 144 W/m² | - |
| 1777472425 | 12.78° C | 18% | 1238.3 hPa | 0 mm | - | 141 W/m² | - |
| 1777472123 | 12.22° C | 18% | 1238.1 hPa | 0 mm | - | 120 W/m² | - |
| 1777471822 | 11.67° C | 19% | 1238.1 hPa | 0 mm | - | 113 W/m² | - |
| 1777471519 | 11.11° C | 20% | 1238 hPa | 0 mm | - | 101 W/m² | - |
| 1777471216 | 11.11° C | 20% | 1238.1 hPa | 0 mm | - | 111 W/m² | - |
| 1777470913 | 10.56° C | 20% | 1238 hPa | 0 mm | - | 108 W/m² | - |
| 1777470610 | 10.56° C | 20% | 1238.2 hPa | 0 mm | - | 93 W/m² | - |
| 1777470306 | 10° C | 21% | 1237.9 hPa | 0 mm | - | 80 W/m² | - |
| 1777470002 | 9.44° C | 22% | 1238.1 hPa | 0 mm | - | 75 W/m² | - |
| 1777469698 | 8.33° C | 24% | 1237.7 hPa | 0 mm | - | 75 W/m² | - |
| 1777469395 | 7.22° C | 25% | 1237.9 hPa | 0 mm | - | 63 W/m² | - |
| 1777469094 | 6.67° C | 23% | 1237.7 hPa | 0 mm | - | 56 W/m² | - |
| 1777468789 | 6.67° C | 24% | 1238 hPa | 0 mm | - | 46 W/m² | - |
| 1777468486 | 6.11° C | 24% | 1237.7 hPa | 0 mm | - | 36 W/m² | - |
| 1777468183 | 5.56° C | 26% | 1237.6 hPa | 0 mm | - | 35 W/m² | - |
| 1777467879 | 5.56° C | 25% | 1237.7 hPa | 0 mm | - | 34 W/m² | - |
* Rain latest hour (hover to see other rain measurements)
** Current wind speed in m/s (hover to see current wind gust speed)